EHI
0 0 0 0 0 0 0 0 0 0 0 0 0 0 0 0 0 0 0 0 0 0 0 0 0 1 1 1 1 2 1 1 0 0 1 1 1 1 1 0 0 0 0
0 0 0 0 0 0 0 0 0 0 0 0 0 0 0 0 0 0 0 0 0 0 0 0 0 0 0 1 1 2 1 0 0 0 0 0 0 0 0 0 0 0 0
0 0 0 0 0 0 0 0 0 0 0 0 0 0 0 0 0 0 0 0 0 0 0 0 0 0 0 0 1 2 1 0 0 0 0 0 0 0 0 0 0 0 0
0 0 0 0 0 0 0 0 0 0 0 0 0 0 0 0 0 0 0 0 0 0 0 0 0 0 0 0 1 1 0 0 0 0 0 0 0 0 0 0 0 0 0
0 0 0 0 0 0 0 0 0 0 0 0 0 0 0 0 0 0 0 0 0 0 0 0 0 0 0 0 0 0 0 0 0 1 1 0 0 0 0 0 0 0 0
0 0 0 0 0 0 0 0 0 0 0 0 0 0 0 0 0 0 0 0 0 0 0 0 0 0 0 0 0 0 0 0 0 1 1 0 0 0 0 0 0 0 0
0 0 0 0 0 0 0 0 0 0 0 0 0 0 0 0 0 0 0 0 0 0 0 0 0 0 0 0 0 0 0 0 0 1 1 0 0 0 0 0 0 0 0
0 0 0 0 0 0 0 0 0 0 0 0 0 0 0 0 0 0 0 0 0 0 0 0 0 0 0 0 0 0 0 0 0 0 0 0 0 0 0 0 0 0 0
0 0 0 0 0 0 0 0 0 0 0 0 0 0 0 0 0 0 0 0 0 0 0 0 0 0 0 0 0 0 0 0 0 0 0 0 0 0 0 0 0 0 0
0 0 0 0 0 0 0 0 0 0 0 0 0 0 0 0 0 0 0 0 0 0 0 0 0 0 0 0 0 0 0 0 0 0 0 0 0 0 0 0 0 0 0
0 0 0 0 0 0 0 0 0 0 0 0 0 0 0 0 0 0 0 0 0 0 0 0 0 0 0 0 0 0 0 0 0 0 0 0 0 0 0 0 0 0 0
0 0 0 0 0 0 0 0 0 0 0 0 0 0 0 0 0 0 0 0 0 0 0 0 0 0 0 0 0 0 0 0 0 0 0 0 0 0 0 0 0 0 0
0 0 0 0 0 0 0 0 0 0 0 0 0 0 0 0 0 0 0 0 0 0 0 0 0 0 0 0 0 0 0 0 0 0 0 0 0 0 0 0 0 0 0
0 0 0 0 0 0 0 0 0 0 0 0 0 0 0 0 0 0 0 0 0 0 0 0 0 0 0 0 0 0 0 0 0 0 0 0 0 0 0 0 0 0 0
0 0 0 0 0 0 0 0 0 0 0 0 0 0 0 0 0 0 0 0 0 0 0 0 0 0 0 0 0 0 0 0 0 0 0 0 0 0 0 0 0 0 0
0 0 0 0 0 0 0 0 0 0 0 0 0 0 0 0 0 0 0 0 0 0 0 0 0 0 0 0 0 0 0 0 0 0 0 0 0 0 0 0 0 0 0
0 0 0 0 0 0 0 0 0 0 0 0 0 0 0 0 0 0 0 0 0 0 0 0 0 0 0 0 0 0 0 0 0 0 0 0 0 0 0 0 0 0 0
0 0 0 0 0 0 0 0 0 0 0 0 0 0 0 0 0 0 0 0 0 0 0 0 0 0 0 0 0 0 0 0 0 0 0 0 0 0 0 0 0 0 0
0 0 0 0 0 0 0 0 0 0 0 0 0 0 0 0 0 0 0 0 0 0 0 0 0 0 0 0 0 0 0 0 0 0 0 0 0 0 0 0 0 0 0
0 0 0 0 0 0 0 0 0 0 0 0 0 0 0 0 0 0 0 0 0 0 0 0 0 0 0 0 0 0 0 0 0 0 0 0 0 0 0 0 0 0 0
0 0 0 0 0 0 0 0 0 0 0 0 0 0 0 0 0 0 0 0 0 0 0 0 0 0 0 0 0 0 0 0 0 0 0 0 0 0 0 0 0 0 0
0 0 0 0 0 0 0 0 0 0 0 0 0 0 0 0 0 0 0 0 0 0 0 0 0 0 0 0 0 0 0 0 0 0 0 0 0 0 0 0 0 0 0
0 0 0 0 0 0 0 0 0 0 0 0 0 0 0 0 0 0 0 0 0 0 0 0 0 0 0 0 0 0 0 0 0 0 0 0 0 0 0 0 0 0 0
0 0 0 0 0 0 0 0 0 0 0 0 0 0 0 0 0 0 0 0 0 0 0 0 0 0 0 0 0 0 0 0 0 0 0 0 0 0 0 0 0 0 0
1 1 0 0 0 0 0 0 0 0 0 0 0 0 0 0 0 0 0 0 0 0 0 0 0 0 0 0 0 0 0 0 0 0 0 0 0 0 0 0 0 0 0
2 2 1 0 0 0 0 0 0 0 0 0 0 0 0 0 0 0 0 0 0 0 0 0 0 0 0 0 0 0 0 0 0 0 0 0 0 0 0 0 0 0 0
Wind_Speed
3 3 3 3 3 3 3 3 4 5 5 5 5 5 5 5 4 3 3 7 9 9 9 9 9 9 10 9 8 8 8 8 8 8 7 7 7 7 7 8 8 8 8
3 3 3 3 3 3 3 3 4 4 4 4 5 5 5 4 4 4 3 4 7 8 9 9 8 8 9 9 9 9 8 8 8 7 7 7 7 7 7 7 7 7 8
3 3 3 3 3 3 4 4 4 4 4 4 4 4 4 4 4 4 4 3 3 5 7 8 8 8 8 8 8 8 8 8 8 7 7 7 7 7 6 7 7 7 7
4 4 3 3 3 3 3 3 3 4 4 4 3 3 3 3 4 4 3 3 3 3 5 7 7 7 7 7 8 8 8 7 7 7 7 7 6 6 6 6 6 6 6
4 4 3 3 3 3 3 3 3 3 3 3 3 3 3 3 3 4 4 4 3 4 3 5 7 8 8 8 8 8 7 7 7 7 7 6 6 7 7 6 6 5 5
4 4 3 3 4 3 3 3 3 3 2 2 4 4 3 3 3 3 3 3 3 4 3 4 4 5 8 8 8 8 8 7 7 6 6 6 6 6 6 6 5 5 5
4 4 3 3 3 3 2 3 3 3 3 2 3 3 4 4 4 3 3 3 3 3 3 3 3 3 3 6 7 7 7 7 7 6 6 6 6 6 6 6 6 6 5
3 4 3 3 2 2 3 3 3 2 1 2 2 2 2 4 4 3 3 3 3 3 3 3 3 3 2 2 4 6 6 5 5 5 5 5 5 5 5 5 5 5 6
3 3 3 2 2 2 2 2 2 3 1 1 1 3 3 1 1 3 3 3 3 2 2 2 3 2 2 2 2 3 4 4 4 4 4 4 4 4 4 4 4 5 5
2 2 3 2 2 2 2 1 2 2 2 1 1 1 2 3 2 1 3 3 3 3 2 2 2 2 2 2 2 3 4 4 4 4 4 4 4 4 4 4 4 4 4
1 2 2 2 2 2 2 2 2 2 2 2 1 1 1 1 2 3 0 2 2 2 1 1 1 1 2 2 1 3 4 4 4 4 4 4 4 4 4 4 4 3 3
0 0 1 1 1 2 2 2 2 2 1 2 1 1 2 1 1 2 2 0 1 2 1 1 1 1 1 1 2 5 4 4 4 5 5 5 5 4 4 4 3 3 3
0 1 1 1 1 1 2 2 2 1 2 2 1 1 1 1 2 2 3 1 0 1 1 1 1 0 1 1 1 4 4 4 4 4 4 4 4 4 3 3 3 3 2
2 2 1 1 1 2 2 2 2 1 1 1 1 1 1 1 2 2 3 3 1 1 1 1 1 1 0 0 1 2 2 4 4 5 5 5 4 4 3 3 3 3 3
2 2 2 2 1 1 2 2 2 1 1 1 1 1 1 1 1 1 2 3 4 2 1 2 1 1 1 0 1 1 1 3 4 4 4 4 4 4 4 3 3 4 3
2 2 2 2 2 1 2 2 1 1 1 1 1 1 1 0 1 1 2 2 2 3 2 2 2 1 0 0 1 1 1 2 2 3 3 3 3 4 4 4 4 4 4
2 2 2 2 2 2 2 2 1 1 1 0 0 1 1 1 1 1 1 1 2 2 2 1 1 0 1 0 0 0 1 1 1 1 2 2 3 3 3 3 4 4 4
2 3 2 2 3 2 2 2 2 1 1 1 1 1 1 1 1 1 1 2 2 2 3 2 1 0 1 1 1 1 0 0 0 1 1 1 2 2 3 3 3 4 4
3 2 3 3 3 3 3 2 2 2 1 2 2 2 2 1 1 1 1 2 2 2 2 3 2 1 0 1 1 0 1 1 1 1 1 2 2 2 2 3 3 3 3
3 3 3 3 3 3 3 2 2 2 1 1 1 2 2 3 3 3 2 2 2 2 2 2 2 1 1 0 1 1 0 1 1 1 1 1 2 2 2 2 2 2 3
3 3 3 2 2 2 3 3 3 2 1 1 1 1 2 2 3 3 2 2 3 2 2 2 2 1 1 1 2 1 1 0 1 0 0 1 1 1 1 1 1 1 2
2 3 3 3 2 2 2 3 4 3 2 2 1 1 1 1 2 3 3 4 5 4 3 3 2 3 3 3 2 2 2 1 1 1 1 1 0 0 1 0 0 0 1
3 3 3 3 3 3 4 4 4 3 2 2 2 1 1 1 1 1 2 3 3 4 5 4 4 4 4 4 4 3 2 3 3 2 2 1 1 1 1 1 1 1 1
3 3 3 3 3 2 3 4 4 2 2 2 2 2 2 2 1 1 2 2 1 2 3 3 4 4 4 4 5 5 5 3 1 1 2 2 1 2 2 2 2 2 2
3 3 3 3 3 3 3 4 3 2 1 2 2 2 2 2 3 2 2 2 1 1 1 2 2 2 3 4 4 3 2 2 1 2 2 2 2 1 1 2 2 2 2
3 2 2 2 3 3 3 4 4 2 2 1 1 2 4 4 3 3 3 3 2 2 1 0 0 1 1 2 4 4 4 3 2 2 2 3 2 1 1 1 1 1 2
Wind_Direction
74 64 58 53 48 55 65 65 64 63 62 65 73 81 77 70 59 52 61 83 85 86 90 99 102 100 97 97 105 105 104 98 93 90 87 87 88 84 81 79 80 82 78
84 78 71 61 53 56 66 74 71 69 67 67 66 68 73 72 62 56 49 68 80 81 84 91 101 99 102 100 94 92 95 101 95 92 91 88 88 89 88 87 86 83 81
93 89 78 65 55 58 65 68 62 63 66 64 60 62 69 66 64 57 47 38 48 72 85 90 94 95 100 103 100 98 95 93 94 89 87 88 88 92 92 88 87 86 86
92 92 81 68 61 63 65 70 62 65 59 57 55 50 56 60 55 53 51 47 42 45 61 81 90 96 95 97 97 97 94 91 89 87 83 82 83 88 90 90 93 90 87
89 94 85 74 70 65 59 72 62 70 70 59 62 52 44 50 50 56 51 47 47 48 43 58 71 82 87 87 89 89 89 91 88 86 80 80 81 83 86 89 92 92 88
91 94 90 81 76 70 57 60 68 57 67 66 70 53 32 34 43 47 47 47 46 49 50 51 48 58 71 76 78 78 77 79 84 84 80 78 79 80 82 81 86 92 91
99 102 97 88 83 82 80 79 76 66 51 61 69 38 18 26 35 37 38 47 43 39 50 56 54 47 47 56 63 70 72 74 75 74 74 73 73 72 72 73 79 82 84
103 114 110 108 104 96 80 73 80 80 48 55 97 86 30 7 7 18 30 51 41 39 47 52 56 56 49 38 48 57 59 65 76 77 75 71 73 75 76 75 79 81 79
97 112 117 119 121 115 115 105 101 107 101 18 80 121 123 176 329 351 10 28 32 42 41 50 57 49 50 43 41 45 49 46 54 70 77 76 83 87 85 78 76 79 77
99 110 119 122 128 122 127 135 121 122 122 98 11 54 135 152 138 15 347 0 16 31 30 50 53 43 39 35 49 61 51 40 46 56 62 76 89 96 94 80 75 75 75
100 116 121 117 127 134 146 133 114 115 125 142 144 104 74 71 102 130 196 339 359 354 9 32 55 43 33 29 38 53 61 54 52 59 61 69 76 83 85 80 72 71 70
25 147 126 120 141 147 153 148 137 130 128 122 123 122 133 137 156 137 150 191 335 323 355 14 26 28 45 40 56 57 61 61 59 62 60 59 62 66 72 73 66 61 61
223 234 167 163 171 180 170 150 134 134 141 142 156 157 156 169 158 142 135 152 139 321 354 355 332 357 63 59 48 59 61 67 64 66 60 54 50 52 58 60 56 48 39
204 211 183 180 181 174 162 156 141 155 141 161 168 164 151 178 151 147 151 144 114 356 353 311 326 333 352 97 51 63 54 63 65 65 62 56 48 48 47 47 51 42 28
191 183 173 165 160 152 152 151 145 167 155 172 183 172 161 186 153 150 146 150 148 160 257 275 289 310 338 107 65 88 71 72 70 64 64 56 47 47 50 49 43 35 26
179 170 166 155 156 141 128 127 147 172 155 195 168 139 148 197 167 149 154 153 147 154 191 239 239 250 251 85 106 101 95 85 69 70 71 62 55 54 55 51 43 35 31
174 176 169 155 156 145 132 126 152 149 151 165 131 146 207 188 170 175 152 143 146 142 164 251 254 283 121 116 61 45 46 50 39 65 70 67 65 60 52 50 48 41 34
173 171 152 145 150 142 135 140 152 146 166 177 197 170 226 202 194 202 170 175 180 174 162 186 235 214 206 195 174 161 81 62 39 48 68 72 65 56 48 55 50 45 41
165 160 149 156 160 158 151 161 160 151 171 196 202 195 215 182 205 223 197 190 190 168 153 162 194 208 216 169 101 51 36 1 6 25 42 52 57 55 57 66 64 59 54
164 165 167 174 173 172 167 170 159 161 166 211 223 211 212 197 204 202 198 191 167 150 149 154 165 176 208 226 134 149 35 354 333 7 35 55 46 45 49 62 66 62 61
170 170 162 166 178 178 181 174 173 173 173 202 242 235 228 209 200 192 182 179 165 165 166 164 178 176 205 183 198 187 184 200 323 331 29 359 12 11 354 346 36 71 75
174 165 166 173 187 206 192 175 167 170 174 189 227 266 262 235 224 203 188 177 169 173 183 179 191 198 216 209 187 179 171 167 256 258 159 282 52 276 291 271 347 117 139
173 178 185 179 189 209 193 182 176 171 176 192 207 226 264 284 260 202 190 186 187 186 178 180 189 208 205 205 179 178 187 190 220 221 153 238 255 243 261 281 242 215 202
182 192 196 192 184 207 189 178 174 168 176 196 197 202 214 246 226 181 161 146 178 215 210 202 202 211 205 197 188 188 190 190 249 277 161 197 231 240 261 264 262 225 223
184 192 188 185 188 218 204 187 169 163 178 211 216 210 209 214 216 189 154 159 180 276 256 206 211 212 202 188 169 140 146 152 217 250 202 178 207 228 264 257 261 250 232
187 175 175 190 198 215 214 202 176 167 183 220 237 239 225 213 205 184 175 174 194 236 239 62 37 336 256 206 184 183 179 178 190 230 214 176 189 172 260 274 256 255 249